| time (UTC) | temp F | wind direction | speed MPH | gust MPH | rain 1hr in | rain 24hr in | rain mn in | humidity % | barometer mb |
| 20260510214415 | 59 | 282 | 5.0 | 10.0 | 0.00 | 0.00 | 0.00 | 36 | 1014.3 |
| 20260510213912 | 59 | 351 | 5.0 | 18.0 | 0.00 | 0.00 | 0.00 | 36 | 1014.3 |
| 20260510213408 | 61 | 330 | 8.0 | 12.0 | 0.00 | 0.00 | 0.00 | 34 | 1014.1 |
| 20260510212905 | 61 | 6 | 3.0 | 15.0 | 0.00 | 0.00 | 0.00 | 35 | 1014.3 |
| 20260510212402 | 60 | 15 | 11.0 | 13.0 | 0.00 | 0.00 | 0.00 | 36 | 1014.1 |
| 20260510211859 | 61 | 26 | 10.0 | 15.0 | 0.00 | 0.00 | 0.00 | 36 | 1014.1 |
| 20260510211355 | 60 | 48 | 4.0 | 22.0 | 0.00 | 0.00 | 0.00 | 35 | 1014.2 |
| 20260510210845 | 58 | 10 | 2.0 | 11.0 | 0.00 | 0.00 | 0.00 | 40 | 1013.9 |
| 20260510210340 | 59 | 349 | 5.0 | 19.0 | 0.00 | 0.00 | 0.00 | 37 | 1014.4 |
| 20260510205839 | 62 | 316 | 11.0 | 13.0 | 0.00 | 0.00 | 0.00 | 35 | 1014.2 |
| 20260510205335 | 62 | 319 | 7.0 | 13.0 | 0.00 | 0.00 | 0.00 | 35 | 1014.0 |
| 20260510204831 | 61 | 347 | 8.0 | 23.0 | 0.00 | 0.00 | 0.00 | 37 | 1013.9 |
| 20260510204328 | 59 | 0 | 4.0 | 17.0 | 0.00 | 0.00 | 0.00 | 37 | 1014.2 |
| 20260510203824 | 62 | 323 | 5.0 | 12.0 | 0.00 | 0.00 | 0.00 | 35 | 1014.1 |
| 20260510203322 | 62 | 310 | 2.0 | 12.0 | 0.00 | 0.00 | 0.00 | 38 | 1014.2 |
| 20260510202822 | 60 | 328 | 10.0 | 19.0 | 0.00 | 0.00 | 0.00 | 37 | 1014.3 |
| 20260510202318 | 59 | 240 | 2.0 | 16.0 | 0.00 | 0.00 | 0.00 | 39 | 1014.2 |
| 20260510201815 | 59 | 2 | 6.0 | 8.0 | 0.00 | 0.00 | 0.00 | 39 | 1014.4 |
| 20260510201312 | 61 | 273 | 5.0 | 23.0 | 0.00 | 0.00 | 0.00 | 37 | 1014.3 |
| 20260510200809 | 60 | 352 | 4.0 | 15.0 | 0.00 | 0.00 | 0.00 | 38 | 1014.2 |
| 20260510200306 | 60 | 29 | 5.0 | 15.0 | 0.00 | 0.00 | 0.00 | 38 | 1014.2 |
| 20260510195802 | 60 | 14 | 4.0 | 17.0 | 0.00 | 0.00 | 0.00 | 38 | 1014.7 |
| 20260510195258 | 60 | 347 | 4.0 | 12.0 | 0.00 | 0.00 | 0.00 | 39 | 1014.4 |
| 20260510194753 | 58 | 320 | 4.0 | 13.0 | 0.00 | 0.00 | 0.00 | 40 | 1014.3 |
| 20260510194250 | 60 | 322 | 8.0 | 19.0 | 0.00 | 0.00 | 0.00 | 38 | 1014.4 |
| 20260510193746 | 60 | 24 | 5.0 | 10.0 | 0.00 | 0.00 | 0.00 | 40 | 1014.2 |
| 20260510193240 | 61 | 248 | 5.0 | 6.0 | 0.00 | 0.00 | 0.00 | 38 | 1014.0 |
| 20260510192736 | 58 | 310 | 5.0 | 17.0 | 0.00 | 0.00 | 0.00 | 40 | 1014.3 |
| 20260510192232 | 58 | 125 | 3.0 | 12.0 | 0.00 | 0.00 | 0.00 | 40 | 1014.7 |
| 20260510191728 | 58 | 341 | 5.0 | 14.0 | 0.00 | 0.00 | 0.00 | 39 | 1014.7 |
| 20260510191224 | 58 | 21 | 2.0 | 11.0 | 0.00 | 0.00 | 0.00 | 42 | 1014.6 |
| 20260510190722 | 58 | 344 | 2.0 | 14.0 | 0.00 | 0.00 | 0.00 | 40 | 1014.4 |
| 20260510190219 | 59 | 328 | 4.0 | 13.0 | 0.00 | 0.00 | 0.00 | 39 | 1014.6 |
| 20260510185716 | 60 | 0 | 5.0 | 7.0 | 0.00 | 0.00 | 0.00 | 38 | 1014.8 |
| 20260510185214 | 60 | 299 | 6.0 | 11.0 | 0.00 | 0.00 | 0.00 | 39 | 1014.6 |
| 20260510184710 | 60 | 271 | 4.0 | 14.0 | 0.00 | 0.00 | 0.00 | 40 | 1014.3 |
| 20260510184207 | 60 | 223 | 2.0 | 9.0 | 0.00 | 0.00 | 0.00 | 39 | 1014.7 |
| 20260510183702 | 60 | 239 | 4.0 | 10.0 | 0.00 | 0.00 | 0.00 | 38 | 1014.8 |
| 20260510183157 | 58 | 204 | 3.0 | 15.0 | 0.00 | 0.00 | 0.00 | 42 | 1014.8 |
| 20260510182654 | 58 | 19 | 2.0 | 11.0 | 0.00 | 0.00 | 0.00 | 42 | 1014.8 |
| 20260510182149 | 58 | 219 | 2.0 | 12.0 | 0.00 | 0.00 | 0.00 | 41 | 1014.8 |
| 20260510181647 | 58 | 35 | 9.0 | 19.0 | 0.00 | 0.00 | 0.00 | 41 | 1014.8 |
| 20260510181143 | 60 | 332 | 8.0 | 11.0 | 0.00 | 0.00 | 0.00 | 40 | 1014.9 |
| 20260510180639 | 60 | 144 | 2.0 | 10.0 | 0.00 | 0.00 | 0.00 | 40 | 1014.4 |
| 20260510180137 | 60 | 178 | 1.0 | 10.0 | 0.00 | 0.00 | 0.00 | 38 | 1014.7 |
| 20260510175633 | 60 | 328 | 6.0 | 14.0 | 0.00 | 0.00 | 0.00 | 39 | 1014.8 |
| 20260510175128 | 60 | 17 | 6.0 | 8.0 | 0.00 | 0.00 | 0.00 | 42 | 1014.7 |
| 20260510174626 | 58 | 348 | 4.0 | 14.0 | 0.00 | 0.00 | 0.00 | 40 | 1014.6 |
| 20260510174124 | 57 | 14 | 4.0 | 9.0 | 0.00 | 0.00 | 0.00 | 42 | 1014.9 |
| 20260510173619 | 57 | 333 | 3.0 | 7.0 | 0.00 | 0.00 | 0.00 | 41 | 1014.8 |
| 20260510173116 | 58 | 149 | 3.0 | 16.0 | 0.00 | 0.00 | 0.00 | 43 | 1014.8 |
| 20260510172611 | 56 | 0 | 3.0 | 12.0 | 0.00 | 0.00 | 0.00 | 42 | 1014.8 |
| 20260510172108 | 57 | 133 | 3.0 | 8.0 | 0.00 | 0.00 | 0.00 | 41 | 1014.6 |
| 20260510171604 | 58 | 324 | 5.0 | 11.0 | 0.00 | 0.00 | 0.00 | 40 | 1014.6 |
| 20260510171103 | 57 | 52 | 2.0 | 11.0 | 0.00 | 0.00 | 0.00 | 42 | 1014.7 |
| 20260510170558 | 57 | 286 | 3.0 | 11.0 | 0.00 | 0.00 | 0.00 | 42 | 1014.7 |
| 20260510170055 | 55 | 23 | 5.0 | 8.0 | 0.00 | 0.00 | 0.00 | 43 | 1014.8 |
| 20260510165551 | 55 | 33 | 7.0 | 11.0 | 0.00 | 0.00 | 0.00 | 45 | 1014.6 |
| 20260510165047 | 57 | 10 | 5.0 | 9.0 | 0.00 | 0.00 | 0.00 | 43 | 1014.9 |
| 20260510164545 | 58 | 86 | 2.0 | 6.0 | 0.00 | 0.00 | 0.00 | 42 | 1014.8 |
| 20260510164040 | 57 | 11 | 6.0 | 17.0 | 0.00 | 0.00 | 0.00 | 42 | 1014.9 |
| 20260510163536 | 57 | 293 | 7.0 | 10.0 | 0.00 | 0.00 | 0.00 | 42 | 1015.0 |
| 20260510163033 | 57 | 343 | 3.0 | 12.0 | 0.00 | 0.00 | 0.00 | 43 | 1015.0 |
| 20260510162527 | 56 | 25 | 3.0 | 10.0 | 0.00 | 0.00 | 0.00 | 42 | 1014.9 |
| 20260510162025 | 54 | 333 | 5.0 | 9.0 | 0.00 | 0.00 | 0.00 | 44 | 1014.9 |
| 20260510161520 | 54 | 25 | 4.0 | 8.0 | 0.00 | 0.00 | 0.00 | 43 | 1014.8 |
| 20260510161017 | 53 | 349 | 5.0 | 11.0 | 0.00 | 0.00 | 0.00 | 46 | 1015.0 |
| 20260510160509 | 53 | 7 | 2.0 | 7.0 | 0.00 | 0.00 | 0.00 | 45 | 1014.9 |
| 20260510160008 | 54 | 2 | 2.0 | 8.0 | 0.00 | 0.00 | 0.00 | 44 | 1014.8 |
| 20260510155504 | 54 | 14 | 7.0 | 13.0 | 0.00 | 0.00 | 0.00 | 44 | 1014.8 |
| 20260510155001 | 55 | 349 | 6.0 | 11.0 | 0.00 | 0.00 | 0.00 | 44 | 1014.8 |
| 20260510154457 | 54 | 15 | 6.0 | 13.0 | 0.00 | 0.00 | 0.00 | 43 | 1014.8 |
| 20260510153956 | 54 | 14 | 6.0 | 11.0 | 0.00 | 0.00 | 0.00 | 47 | 1014.6 |
| 20260510153452 | 54 | 78 | 3.0 | 6.0 | 0.00 | 0.00 | 0.00 | 47 | 1014.8 |
| 20260510152949 | 54 | 29 | 5.0 | 11.0 | 0.00 | 0.00 | 0.00 | 47 | 1014.6 |
| 20260510152447 | 54 | 327 | 4.0 | 6.0 | 0.00 | 0.00 | 0.00 | 47 | 1014.7 |
| 20260510151943 | 53 | 36 | 0.0 | 7.0 | 0.00 | 0.00 | 0.00 | 47 | 1014.8 |
| 20260510151440 | 52 | 94 | 2.0 | 5.0 | 0.00 | 0.00 | 0.00 | 48 | 1014.6 |
| 20260510150936 | 52 | 31 | 4.0 | 11.0 | 0.00 | 0.00 | 0.00 | 48 | 1014.8 |
| 20260510150432 | 52 | 28 | 5.0 | 13.0 | 0.00 | 0.00 | 0.00 | 48 | 1014.7 |
| 20260510145927 | 52 | 43 | 3.0 | 11.0 | 0.00 | 0.00 | 0.00 | 50 | 1014.7 |
| 20260510145419 | 50 | 31 | 5.0 | 10.0 | 0.00 | 0.00 | 0.00 | 52 | 1014.7 |
| 20260510144916 | 50 | 15 | 8.0 | 13.0 | 0.00 | 0.00 | 0.00 | 53 | 1014.7 |
| 20260510144413 | 50 | 7 | 7.0 | 13.0 | 0.00 | 0.00 | 0.00 | 52 | 1014.9 |
| 20260510143907 | 49 | 20 | 4.0 | 13.0 | 0.00 | 0.00 | 0.00 | 54 | 1014.6 |
| 20260510143403 | 51 | 5 | 6.0 | 10.0 | 0.00 | 0.00 | 0.00 | 53 | 1014.3 |
| 20260510142901 | 51 | 327 | 3.0 | 10.0 | 0.00 | 0.00 | 0.00 | 51 | 1014.7 |
| 20260510142357 | 50 | 28 | 4.0 | 10.0 | 0.00 | 0.00 | 0.00 | 53 | 1014.4 |
| 20260510141854 | 49 | 357 | 3.0 | 8.0 | 0.00 | 0.00 | 0.00 | 56 | 1014.3 |
| 20260510141351 | 48 | 359 | 3.0 | 11.0 | 0.00 | 0.00 | 0.00 | 57 | 1014.6 |
| 20260510140848 | 48 | 25 | 2.0 | 10.0 | 0.00 | 0.00 | 0.00 | 56 | 1014.4 |
| 20260510140343 | 48 | 335 | 4.0 | 10.0 | 0.00 | 0.00 | 0.00 | 56 | 1014.4 |
| 20260510135837 | 49 | 351 | 7.0 | 11.0 | 0.00 | 0.00 | 0.00 | 55 | 1014.6 |
| 20260510135333 | 49 | 2 | 3.0 | 7.0 | 0.00 | 0.00 | 0.00 | 57 | 1014.3 |
| 20260510134831 | 48 | 308 | 3.0 | 11.0 | 0.00 | 0.00 | 0.00 | 56 | 1014.2 |
| 20260510134328 | 48 | 305 | 5.0 | 9.0 | 0.00 | 0.00 | 0.00 | 56 | 1014.2 |
| 20260510133824 | 47 | 272 | 2.0 | 9.0 | 0.00 | 0.00 | 0.00 | 59 | 1014.3 |
| 20260510133320 | 47 | 128 | 0.0 | 6.0 | 0.00 | 0.00 | 0.00 | 59 | 1014.3 |
| 20260510132816 | 48 | 332 | 3.0 | 9.0 | 0.00 | 0.00 | 0.00 | 57 | 1014.2 |
| 20260510132314 | 45 | 239 | 2.0 | 5.0 | 0.00 | 0.00 | 0.00 | 61 | 1014.2 |
| 20260510131811 | 45 | 295 | 3.0 | 7.0 | 0.00 | 0.00 | 0.00 | 59 | 1014.0 |
| 20260510131308 | 46 | 236 | 4.0 | 7.0 | 0.00 | 0.00 | 0.00 | 60 | 1014.1 |
| 20260510130805 | 46 | 351 | 2.0 | 5.0 | 0.00 | 0.00 | 0.00 | 60 | 1013.9 |
| 20260510130302 | 45 | 239 | 2.0 | 7.0 | 0.00 | 0.00 | 0.00 | 60 | 1014.0 |
| 20260510125758 | 45 | 255 | 2.0 | 4.0 | 0.00 | 0.00 | 0.00 | 61 | 1013.8 |
| 20260510125254 | 44 | 271 | 3.0 | 6.0 | 0.00 | 0.00 | 0.00 | 61 | 1013.8 |
| 20260510124751 | 44 | 255 | 2.0 | 6.0 | 0.00 | 0.00 | 0.00 | 63 | 1013.7 |
| 20260510124248 | 43 | 234 | 2.0 | 5.0 | 0.00 | 0.00 | 0.00 | 64 | 1013.8 |
| 20260510123744 | 42 | 306 | 1.0 | 5.0 | 0.00 | 0.00 | 0.00 | 65 | 1013.6 |
| 20260510123240 | 42 | 322 | 2.0 | 4.0 | 0.00 | 0.00 | 0.00 | 66 | 1013.8 |
| 20260510122736 | 42 | 320 | 1.0 | 2.0 | 0.00 | 0.00 | 0.00 | 68 | 1013.6 |
| 20260510122233 | 42 | 20 | 0.0 | 2.0 | 0.00 | 0.00 | 0.00 | 67 | 1013.6 |
| 20260510121729 | 42 | 7 | 1.0 | 2.0 | 0.00 | 0.00 | 0.00 | 65 | 1013.4 |
| 20260510121227 | 43 | 290 | 0.0 | 2.0 | 0.00 | 0.00 | 0.00 | 63 | 1013.3 |
| 20260510120724 | 43 | 2 | 1.0 | 3.0 | 0.00 | 0.00 | 0.00 | 63 | 1013.3 |
| 20260510120220 | 40 | 355 | 0.0 | 3.0 | 0.00 | 0.00 | 0.00 | 67 | 1013.1 |
| 20260510115716 | 39 | 237 | 0.0 | 4.0 | 0.00 | 0.00 | 0.00 | 68 | 1013.4 |
| 20260510115214 | 40 | 302 | 1.0 | 4.0 | 0.00 | 0.00 | 0.00 | 67 | 1013.3 |
| 20260510114709 | 39 | 256 | 0.0 | 5.0 | 0.00 | 0.00 | 0.00 | 68 | 1013.2 |
| 20260510114207 | 38 | 343 | 0.0 | 4.0 | 0.00 | 0.00 | 0.00 | 71 | 1013.1 |
| 20260510113701 | 37 | 6 | 0.0 | 2.0 | 0.00 | 0.00 | 0.00 | 72 | 1013.1 |
| 20260510113158 | 37 | 5 | 0.0 | 2.0 | 0.00 | 0.00 | 0.00 | 72 | 1013.1 |
| 20260510112654 | 37 | 9 | 1.0 | 3.0 | 0.00 | 0.00 | 0.00 | 72 | 1013.0 |
| 20260510112152 | 37 | 315 | 3.0 | 5.0 | 0.00 | 0.00 | 0.00 | 72 | 1013.0 |
| 20260510111642 | 36 | 340 | 1.0 | 5.0 | 0.00 | 0.00 | 0.00 | 73 | 1012.6 |
| 20260510111138 | 37 | 347 | 1.0 | 5.0 | 0.00 | 0.00 | 0.00 | 73 | 1013.1 |
| 20260510110633 | 36 | 328 | 0.0 | 3.0 | 0.00 | 0.00 | 0.00 | 74 | 1012.8 |
| 20260510110131 | 36 | 290 | 0.0 | 3.0 | 0.00 | 0.00 | 0.00 | 74 | 1013.0 |
| 20260510105626 | 36 | 346 | 0.0 | 3.0 | 0.00 | 0.00 | 0.00 | 73 | 1012.9 |
| 20260510105121 | 36 | 246 | 0.0 | 3.0 | 0.00 | 0.00 | 0.00 | 74 | 1012.9 |
| 20260510104618 | 36 | 261 | 2.0 | 3.0 | 0.00 | 0.00 | 0.00 | 74 | 1012.8 |
| 20260510104115 | 36 | 344 | 1.0 | 2.0 | 0.00 | 0.00 | 0.00 | 72 | 1012.6 |
| 20260510103612 | 37 | 267 | 1.0 | 5.0 | 0.00 | 0.00 | 0.00 | 71 | 1012.6 |
| 20260510103107 | 37 | 248 | 0.0 | 3.0 | 0.00 | 0.00 | 0.00 | 71 | 1012.4 |
| 20260510102603 | 37 | 263 | 0.0 | 4.0 | 0.00 | 0.00 | 0.00 | 69 | 1012.6 |
| 20260510102059 | 38 | 232 | 2.0 | 4.0 | 0.00 | 0.00 | 0.00 | 70 | 1012.3 |
| 20260510101557 | 38 | 265 | 2.0 | 3.0 | 0.00 | 0.00 | 0.00 | 69 | 1012.5 |
| 20260510101055 | 38 | 253 | 0.0 | 2.0 | 0.00 | 0.00 | 0.00 | 69 | 1012.1 |
| 20260510100551 | 38 | 149 | 1.0 | 1.0 | 0.00 | 0.00 | 0.00 | 69 | 1011.8 |
| 20260510100049 | 37 | 36 | 0.0 | 2.0 | 0.00 | 0.00 | 0.00 | 70 | 1011.9 |
| 20260510095544 | 37 | 191 | 0.0 | 1.0 | 0.00 | 0.00 | 0.00 | 70 | 1011.9 |
| 20260510095044 | 37 | 193 | 0.0 | 3.0 | 0.00 | 0.00 | 0.00 | 70 | 1011.9 |
| 20260510094544 | 37 | 32 | 0.0 | 1.0 | 0.00 | 0.00 | 0.00 | 72 | 1011.8 |
| 20260510094039 | 37 | 358 | 2.0 | 2.0 | 0.00 | 0.00 | 0.00 | 71 | 1011.8 |
| 20260510093535 | 37 | 22 | 0.0 | 3.0 | 0.00 | 0.00 | 0.00 | 70 | 1011.8 |
| 20260510093032 | 37 | 315 | 0.0 | 2.0 | 0.00 | 0.00 | 0.00 | 70 | 1012.0 |
| 20260510092530 | 38 | 317 | 1.0 | 2.0 | 0.00 | 0.00 | 0.00 | 69 | 1011.9 |
| 20260510092029 | 38 | 315 | 0.0 | 1.0 | 0.00 | 0.00 | 0.00 | 69 | 1012.0 |
| 20260510091526 | 38 | 224 | 0.0 | 2.0 | 0.00 | 0.00 | 0.00 | 69 | 1011.9 |
| 20260510091022 | 37 | 224 | 0.0 | 1.0 | 0.00 | 0.00 | 0.00 | 70 | 1011.9 |
| 20260510090519 | 37 | 32 | 0.0 | 2.0 | 0.00 | 0.00 | 0.00 | 69 | 1011.8 |
| 20260510090015 | 38 | 44 | 0.0 | 1.0 | 0.00 | 0.00 | 0.00 | 68 | 1012.0 |
| 20260510085510 | 38 | 224 | 0.0 | 1.0 | 0.00 | 0.00 | 0.00 | 69 | 1011.6 |
| 20260510085006 | 38 | 201 | 0.0 | 2.0 | 0.00 | 0.00 | 0.00 | 70 | 1011.8 |
| 20260510084503 | 38 | 292 | 0.0 | 2.0 | 0.00 | 0.00 | 0.00 | 68 | 1011.6 |
| 20260510084000 | 39 | 249 | 0.0 | 2.0 | 0.00 | 0.00 | 0.00 | 67 | 1011.5 |
| 20260510083456 | 38 | 193 | 0.0 | 2.0 | 0.00 | 0.00 | 0.00 | 68 | 1011.3 |
| 20260510082951 | 37 | 333 | 0.0 | 1.0 | 0.00 | 0.00 | 0.00 | 70 | 1011.2 |
| 20260510082450 | 37 | 319 | 0.0 | 2.0 | 0.00 | 0.00 | 0.00 | 70 | 1011.1 |
| 20260510081949 | 37 | 5 | 0.0 | 2.0 | 0.00 | 0.00 | 0.00 | 70 | 1011.2 |
| 20260510081445 | 36 | 21 | 0.0 | 2.0 | 0.00 | 0.00 | 0.00 | 72 | 1011.1 |
| 20260510080942 | 36 | 44 | 0.0 | 2.0 | 0.00 | 0.00 | 0.00 | 73 | 1010.9 |
| 20260510080439 | 36 | 30 | 1.0 | 2.0 | 0.00 | 0.00 | 0.00 | 73 | 1011.1 |
| 20260510075937 | 36 | 346 | 0.0 | 1.0 | 0.00 | 0.00 | 0.00 | 72 | 1011.0 |
| 20260510075435 | 37 | 333 | 0.0 | 2.0 | 0.00 | 0.00 | 0.00 | 72 | 1010.9 |
| 20260510074931 | 37 | 22 | 0.0 | 2.0 | 0.00 | 0.00 | 0.00 | 72 | 1011.1 |
| 20260510074429 | 36 | 328 | 0.0 | 2.0 | 0.00 | 0.00 | 0.00 | 72 | 1010.8 |
| 20260510073925 | 36 | 55 | 0.0 | 1.0 | 0.00 | 0.00 | 0.00 | 72 | 1010.9 |
| 20260510073420 | 37 | 5 | 0.0 | 1.0 | 0.00 | 0.00 | 0.00 | 72 | 1010.9 |
| 20260510072917 | 37 | 315 | 0.0 | 1.0 | 0.00 | 0.00 | 0.00 | 72 | 1011.0 |
| 20260510072414 | 37 | 339 | 0.0 | 2.0 | 0.00 | 0.00 | 0.00 | 71 | 1010.8 |
| 20260510071909 | 38 | 322 | 0.0 | 2.0 | 0.00 | 0.00 | 0.00 | 70 | 1010.7 |
| 20260510071406 | 38 | 328 | 1.0 | 2.0 | 0.00 | 0.00 | 0.00 | 69 | 1010.8 |
| 20260510070905 | 38 | 5 | 2.0 | 2.0 | 0.00 | 0.00 | 0.00 | 69 | 1010.8 |
| 20260510070401 | 38 | 314 | 1.0 | 2.0 | 0.00 | 0.00 | 0.00 | 68 | 1010.7 |
| 20260510065856 | 39 | 11 | 0.0 | 2.0 | 0.00 | 0.00 | 0.00 | 67 | 1010.6 |
| 20260510065353 | 39 | 318 | 0.0 | 2.0 | 0.00 | 0.00 | 0.00 | 66 | 1010.7 |
| 20260510064850 | 39 | 238 | 1.0 | 2.0 | 0.00 | 0.00 | 0.00 | 66 | 1010.9 |
| 20260510064348 | 40 | 320 | 0.0 | 2.0 | 0.00 | 0.00 | 0.00 | 65 | 1010.8 |
| 20260510063844 | 40 | 315 | 0.0 | 2.0 | 0.00 | 0.00 | 0.00 | 64 | 1010.6 |
| 20260510063340 | 39 | 241 | 0.0 | 1.0 | 0.00 | 0.00 | 0.00 | 65 | 1010.7 |
| 20260510062837 | 39 | 313 | 0.0 | 1.0 | 0.00 | 0.00 | 0.00 | 66 | 1010.9 |
| 20260510062333 | 40 | 329 | 0.0 | 3.0 | 0.00 | 0.00 | 0.00 | 64 | 1010.7 |
| 20260510061828 | 40 | 345 | 1.0 | 2.0 | 0.00 | 0.00 | 0.00 | 64 | 1010.6 |
| 20260510061325 | 40 | 2 | 1.0 | 2.0 | 0.00 | 0.00 | 0.00 | 63 | 1010.7 |
| 20260510060821 | 40 | 347 | 2.0 | 2.0 | 0.00 | 0.00 | 0.00 | 64 | 1010.6 |
| 20260510060319 | 40 | 341 | 1.0 | 3.0 | 0.00 | 0.00 | 0.00 | 64 | 1010.7 |
| 20260510055815 | 40 | 354 | 0.0 | 2.0 | 0.00 | 0.00 | 0.00 | 63 | 1010.7 |
| 20260510055314 | 41 | 337 | 0.0 | 2.0 | 0.00 | 0.00 | 0.00 | 63 | 1010.5 |
| 20260510054813 | 41 | 331 | 2.0 | 2.0 | 0.00 | 0.00 | 0.00 | 62 | 1010.3 |
| 20260510054309 | 42 | 356 | 2.0 | 3.0 | 0.00 | 0.00 | 0.00 | 61 | 1010.4 |
| 20260510053804 | 42 | 356 | 1.0 | 3.0 | 0.00 | 0.00 | 0.00 | 60 | 1010.3 |
| 20260510053259 | 43 | 339 | 1.0 | 3.0 | 0.00 | 0.00 | 0.00 | 58 | 1010.1 |
| 20260510052755 | 43 | 324 | 2.0 | 3.0 | 0.00 | 0.00 | 0.00 | 57 | 1010.0 |
| 20260510052246 | 43 | 16 | 1.0 | 5.0 | 0.00 | 0.00 | 0.00 | 57 | 1010.3 |
| 20260510051742 | 43 | 338 | 2.0 | 5.0 | 0.00 | 0.00 | 0.00 | 57 | 1010.1 |
| 20260510051239 | 42 | 358 | 1.0 | 3.0 | 0.00 | 0.00 | 0.00 | 59 | 1010.1 |
| 20260510050736 | 42 | 332 | 1.0 | 3.0 | 0.00 | 0.00 | 0.00 | 59 | 1010.1 |
| 20260510050233 | 42 | 4 | 0.0 | 2.0 | 0.00 | 0.00 | 0.00 | 59 | 1009.8 |
| 20260510045730 | 42 | 341 | 0.0 | 2.0 | 0.00 | 0.00 | 0.00 | 60 | 1009.6 |
| 20260510045226 | 42 | 338 | 0.0 | 2.0 | 0.00 | 0.00 | 0.00 | 61 | 1009.7 |
| 20260510044723 | 41 | 355 | 2.0 | 2.0 | 0.00 | 0.00 | 0.00 | 62 | 1009.6 |
| 20260510044221 | 42 | 355 | 0.0 | 2.0 | 0.00 | 0.00 | 0.00 | 62 | 1009.6 |
| 20260510043716 | 42 | 350 | 0.0 | 2.0 | 0.00 | 0.00 | 0.00 | 62 | 1009.6 |
| 20260510043213 | 42 | 356 | 1.0 | 2.0 | 0.00 | 0.00 | 0.00 | 61 | 1009.7 |
| 20260510042710 | 42 | 290 | 0.0 | 1.0 | 0.00 | 0.00 | 0.00 | 60 | 1009.4 |
| 20260510042206 | 42 | 31 | 0.0 | 2.0 | 0.00 | 0.00 | 0.00 | 62 | 1009.4 |
| 20260510041703 | 42 | 304 | 0.0 | 2.0 | 0.00 | 0.00 | 0.00 | 61 | 1009.5 |
| 20260510041201 | 42 | 318 | 0.0 | 2.0 | 0.00 | 0.00 | 0.00 | 62 | 1009.2 |
| 20260510040657 | 43 | 352 | 0.0 | 2.0 | 0.00 | 0.00 | 0.00 | 61 | 1009.2 |
| 20260510040154 | 43 | 326 | 0.0 | 1.0 | 0.00 | 0.00 | 0.00 | 61 | 1009.0 |
| 20260510035650 | 43 | 315 | 0.0 | 1.0 | 0.00 | 0.00 | 0.00 | 59 | 1009.2 |
| 20260510035145 | 43 | 312 | 0.0 | 2.0 | 0.00 | 0.00 | 0.00 | 59 | 1009.0 |
| 20260510034642 | 43 | 328 | 1.0 | 2.0 | 0.00 | 0.00 | 0.00 | 59 | 1009.3 |
| 20260510034139 | 42 | 13 | 0.0 | 2.0 | 0.00 | 0.00 | 0.00 | 60 | 1009.2 |
| 20260510033635 | 42 | 299 | 0.0 | 2.0 | 0.00 | 0.00 | 0.00 | 60 | 1009.0 |
| 20260510033133 | 42 | 323 | 0.0 | 2.0 | 0.00 | 0.00 | 0.00 | 60 | 1009.0 |
| 20260510032630 | 42 | 335 | 0.0 | 2.0 | 0.00 | 0.00 | 0.00 | 59 | 1009.1 |
| 20260510032125 | 42 | 292 | 0.0 | 2.0 | 0.00 | 0.00 | 0.00 | 59 | 1008.8 |
| 20260510031620 | 43 | 324 | 0.0 | 2.0 | 0.00 | 0.00 | 0.00 | 57 | 1008.8 |
| 20260510031117 | 44 | 308 | 0.0 | 2.0 | 0.00 | 0.00 | 0.00 | 55 | 1008.6 |
| 20260510030611 | 44 | 7 | 0.0 | 2.0 | 0.00 | 0.00 | 0.00 | 54 | 1008.7 |
| 20260510030109 | 45 | 321 | 0.0 | 2.0 | 0.00 | 0.00 | 0.00 | 52 | 1008.3 |
| 20260510025606 | 46 | 275 | 1.0 | 2.0 | 0.00 | 0.00 | 0.00 | 50 | 1008.3 |
| 20260510025103 | 46 | 312 | 0.0 | 2.0 | 0.00 | 0.00 | 0.00 | 50 | 1008.3 |
| 20260510024600 | 46 | 322 | 0.0 | 2.0 | 0.00 | 0.00 | 0.00 | 51 | 1008.1 |
| 20260510024056 | 47 | 293 | 1.0 | 2.0 | 0.00 | 0.00 | 0.00 | 49 | 1008.0 |
| 20260510023547 | 47 | 288 | 0.0 | 3.0 | 0.00 | 0.00 | 0.00 | 48 | 1007.9 |
| 20260510023044 | 47 | 289 | 2.0 | 2.0 | 0.00 | 0.00 | 0.00 | 47 | 1008.1 |
| 20260510022543 | 48 | 290 | 1.0 | 3.0 | 0.00 | 0.00 | 0.00 | 47 | 1008.0 |
| 20260510022037 | 48 | 325 | 0.0 | 2.0 | 0.00 | 0.00 | 0.00 | 48 | 1007.8 |
| 20260510021529 | 48 | 314 | 1.0 | 2.0 | 0.00 | 0.00 | 0.00 | 48 | 1007.8 |
| 20260510021027 | 49 | 327 | 0.0 | 2.0 | 0.00 | 0.00 | 0.00 | 46 | 1007.7 |
| 20260510020521 | 49 | 334 | 2.0 | 3.0 | 0.00 | 0.00 | 0.00 | 45 | 1007.5 |
| 20260510020017 | 49 | 342 | 0.0 | 2.0 | 0.00 | 0.00 | 0.00 | 44 | 1007.6 |
| 20260510015512 | 50 | 337 | 0.0 | 2.0 | 0.00 | 0.00 | 0.00 | 43 | 1007.3 |
| 20260510015008 | 50 | 306 | 2.0 | 3.0 | 0.00 | 0.00 | 0.00 | 42 | 1007.3 |
| 20260510014506 | 50 | 354 | 0.0 | 3.0 | 0.00 | 0.00 | 0.00 | 42 | 1007.2 |
| 20260510014003 | 51 | 264 | 1.0 | 4.0 | 0.00 | 0.00 | 0.00 | 41 | 1007.2 |
| 20260510013456 | 51 | 355 | 2.0 | 4.0 | 0.00 | 0.00 | 0.00 | 41 | 1007.1 |
| 20260510012952 | 52 | 8 | 2.0 | 5.0 | 0.00 | 0.00 | 0.00 | 40 | 1006.8 |
| 20260510012447 | 52 | 12 | 2.0 | 4.0 | 0.00 | 0.00 | 0.00 | 39 | 1006.7 |
| 20260510011943 | 53 | 313 | 1.0 | 8.0 | 0.00 | 0.00 | 0.00 | 38 | 1006.6 |
| 20260510011437 | 53 | 1 | 3.0 | 7.0 | 0.00 | 0.00 | 0.00 | 38 | 1006.5 |
| 20260510010934 | 54 | 4 | 3.0 | 6.0 | 0.00 | 0.00 | 0.00 | 37 | 1006.4 |
| 20260510010431 | 54 | 23 | 4.0 | 7.0 | 0.00 | 0.00 | 0.00 | 37 | 1006.3 |
| 20260510005928 | 55 | 344 | 1.0 | 5.0 | 0.00 | 0.00 | 0.00 | 36 | 1006.4 |
| 20260510005423 | 55 | 7 | 5.0 | 10.0 | 0.00 | 0.00 | 0.00 | 35 | 1006.5 |
| 20260510004921 | 55 | 16 | 6.0 | 13.0 | 0.00 | 0.00 | 0.00 | 34 | 1006.2 |
| 20260510004419 | 56 | 19 | 7.0 | 10.0 | 0.00 | 0.00 | 0.00 | 34 | 1006.1 |
| 20260510003916 | 56 | 30 | 6.0 | 9.0 | 0.00 | 0.00 | 0.00 | 34 | 1006.0 |
| 20260510003413 | 56 | 30 | 3.0 | 14.0 | 0.00 | 0.00 | 0.00 | 34 | 1005.8 |
| 20260510002912 | 56 | 354 | 7.0 | 14.0 | 0.00 | 0.00 | 0.00 | 33 | 1006.0 |
| 20260510002409 | 57 | 20 | 5.0 | 14.0 | 0.00 | 0.00 | 0.00 | 32 | 1006.1 |
| 20260510001906 | 57 | 359 | 4.0 | 14.0 | 0.00 | 0.00 | 0.00 | 32 | 1005.8 |
| 20260510001404 | 57 | 353 | 13.0 | 14.0 | 0.00 | 0.00 | 0.00 | 31 | 1005.5 |
| 20260510000900 | 57 | 36 | 7.0 | 13.0 | 0.00 | 0.00 | 0.00 | 33 | 1005.9 |
| 20260510000357 | 57 | 15 | 11.0 | 16.0 | 0.00 | 0.00 | 0.00 | 32 | 1005.6 |
| 20260509235853 | 57 | 7 | 3.0 | 15.0 | 0.00 | 0.00 | 0.00 | 31 | 1005.6 |
| 20260509235350 | 58 | 29 | 7.0 | 12.0 | 0.00 | 0.00 | 0.00 | 31 | 1005.5 |
| 20260509234846 | 58 | 37 | 5.0 | 15.0 | 0.00 | 0.00 | 0.00 | 31 | 1005.4 |
| 20260509234343 | 58 | 344 | 5.0 | 17.0 | 0.00 | 0.00 | 0.00 | 30 | 1005.4 |
| 20260509233842 | 58 | 358 | 3.0 | 13.0 | 0.00 | 0.00 | 0.00 | 30 | 1005.1 |
| 20260509233340 | 59 | 29 | 7.0 | 16.0 | 0.00 | 0.00 | 0.00 | 31 | 1005.2 |
| 20260509232835 | 59 | 334 | 6.0 | 13.0 | 0.00 | 0.00 | 0.00 | 31 | 1005.0 |
| 20260509232333 | 60 | 21 | 3.0 | 11.0 | 0.00 | 0.00 | 0.00 | 32 | 1004.9 |
| 20260509231829 | 60 | 3 | 7.0 | 13.0 | 0.00 | 0.00 | 0.00 | 32 | 1004.9 |
| 20260509231326 | 60 | 324 | 13.0 | 17.0 | 0.00 | 0.00 | 0.00 | 31 | 1004.8 |
| 20260509230824 | 60 | 314 | 8.0 | 19.0 | 0.00 | 0.00 | 0.00 | 30 | 1004.6 |
| 20260509230321 | 60 | 313 | 7.0 | 19.0 | 0.00 | 0.00 | 0.00 | 31 | 1004.8 |
| 20260509225815 | 60 | 311 | 7.0 | 15.0 | 0.00 | 0.00 | 0.00 | 30 | 1004.7 |
| 20260509225312 | 60 | 324 | 7.0 | 14.0 | 0.00 | 0.00 | 0.00 | 30 | 1004.7 |
| 20260509224809 | 60 | 14 | 7.0 | 24.0 | 0.00 | 0.00 | 0.00 | 30 | 1004.5 |
| 20260509224305 | 60 | 274 | 5.0 | 20.0 | 0.00 | 0.00 | 0.00 | 30 | 1004.5 |
| 20260509223801 | 60 | 308 | 15.0 | 15.0 | 0.00 | 0.00 | 0.00 | 30 | 1004.4 |
| 20260509223259 | 59 | 23 | 8.0 | 17.0 | 0.00 | 0.00 | 0.00 | 29 | 1004.4 |
| 20260509222755 | 60 | 23 | 4.0 | 13.0 | 0.00 | 0.00 | 0.00 | 30 | 1004.4 |
| 20260509222251 | 60 | 0 | 6.0 | 18.0 | 0.00 | 0.00 | 0.00 | 30 | 1004.4 |
| 20260509221747 | 61 | 341 | 6.0 | 16.0 | 0.00 | 0.00 | 0.00 | 30 | 1004.1 |
| 20260509221244 | 60 | 236 | 3.0 | 15.0 | 0.00 | 0.00 | 0.00 | 31 | 1004.0 |
| 20260509220739 | 60 | 14 | 14.0 | 18.0 | 0.00 | 0.00 | 0.00 | 32 | 1004.2 |
| 20260509220236 | 61 | 37 | 4.0 | 15.0 | 0.00 | 0.00 | 0.00 | 33 | 1004.1 |
| 20260509215731 | 60 | 12 | 6.0 | 15.0 | 0.00 | 0.00 | 0.00 | 31 | 1003.9 |
| 20260509215228 | 61 | 325 | 15.0 | 23.0 | 0.00 | 0.00 | 0.00 | 31 | 1003.9 |
| 20260509214725 | 60 | 12 | 5.0 | 14.0 | 0.00 | 0.00 | 0.00 | 32 | 1004.0 |